Regional Weather Roundup
Issued by NWS

Home | Current Version | Previous Version | Text Only | Print | Product List | Glossary Off
Versions: 1 2 3 4 5 6 7 8 9 10 11 12 13 14 15 16 17 18 19 20 21 22 23 24 25 26 27 28 29 30 31 32 33 34 35 36 37 38 39 40 41 42 43 44 45 46 47 48 49 50

000
ASUS43 KIND 010859
RWRIN

WEATHER ROUNDUP FOR INDIANA
NATIONAL WEATHER SERVICE INDIANAPOLIS IN
400 AM EST SUN FEB 01 2015

NOTE: "FAIR" INDICATES FEW OR NO CLOUDS BELOW 12,000 FEET WITH NO
SIGNIFICANT WEATHER AND/OR OBSTRUCTIONS TO VISIBILITY.

* - STATION DOES NOT REPORT WEATHER SUCH AS PRECIPITATION OR FOG.

+ - STATION NOT QUALITY CONTROLLED BY THE NATIONAL WEATHER SERVICE.
    USE DATA WITH CAUTION...ESPECIALLY DEWPOINT AND RELATIVE
    HUMIDITY OBSERVATIONS.

INZ001>003-010>013-019-020-011000-
NORTHWEST INDIANA

CITY           SKY/WX    TMP DP  RH WIND       PRES   REMARKS
VALPARAISO     NOT AVBL

$$

LMZ046-743>745-011000-
SOUTHERN LAKE MICHIGAN

STATION/POSITION TIME  TEMP WIND        PRES
                       AIR  DIR/SP/G
                 (UTC) (F)  (DEG/KT/KT) (MB)
MICHIGAN CITY    0800   30   50/  7/  8   N/A

$$

INZ004-005-014>016-021>024-011000-
NORTH CENTRAL INDIANA

CITY           SKY/WX    TMP DP  RH WIND       PRES   REMARKS
GOSHEN         LGT SNOW  32  31  96 CALM      30.10F VSB 1
PERU/GRISSOM   DRIZZLE   32  32 100 SE6       30.08F FOG     WCI  26
SOUTH BEND     LGT SNOW  31  29  92 E3        30.10F VSB 3/4

$$

INZ006>009-017-018-025>027-011000-
NORTHEAST INDIANA

CITY           SKY/WX    TMP DP  RH WIND       PRES   REMARKS
ANGOLA *+      CLOUDY    30  28  93 E5        30.10F WCI  25
FORT WAYNE     LGT SNOW  32  32 100 S3        30.12F VSB 1

$$

INZ028-029-035-036-043>045-051>053-011000-
WEST CENTRAL INDIANA

CITY           SKY/WX    TMP DP  RH WIND       PRES   REMARKS
GREENCASTLE +  CLOUDY    32  28  86 SE6       30.09F WCI  26
LAFAYETTE      CLOUDY    32  31  96 E6        30.08F FOG     WCI  26
TERRE HAUTE    CLOUDY    33  29  85 E9        30.05F WCI  25

$$

INZ030>032-037>040-046>048-054>057-064-065-011000-
CENTRAL INDIANA

CITY           SKY/WX    TMP DP  RH WIND       PRES   REMARKS
INDIANAPOLIS   CLOUDY    30  29  96 E13       30.07F WCI  20
-EAGLE CREEK   CLOUDY    32  31  96 E5        30.08F FOG     WCI  27
KOKOMO *+      CLOUDY    34  30  86 S7        30.10S WCI  28
MT COMFORT *+  CLOUDY    32 N/A N/A CALM      30.10F
SHELBYVILLE    CLOUDY    34  30  85 E6        30.10F WCI  29

$$

INZ033-034-041-042-049-050-058-059-011000-
EAST CENTRAL INDIANA

CITY           SKY/WX    TMP DP  RH WIND       PRES   REMARKS
MUNCIE         CLOUDY    32  31  96 SE5       30.10F FOG     WCI  27

$$

INZ060-061-067>069-081>083-085>088-011000-
SOUTHWEST INDIANA

CITY           SKY/WX    TMP DP  RH WIND       PRES   REMARKS
EVANSVILLE     CLOUDY    39  24  55 NE6       30.03F
HUNTINGBURG *+ CLOUDY    37  21  52 SE9       30.04F

$$

INZ062-063-066-070>080-084-089>092-011000-
SOUTH CENTRAL AND SOUTHEAST INDIANA

CITY           SKY/WX    TMP DP  RH WIND       PRES   REMARKS
BLOOMINGTON    CLOUDY    33  27  78 E6        30.06F WCI  28
SEYMOUR +      CLOUDY    36  27  69 SE3       30.09F

$$




USA.gov is the U.S. government's official web portal to all federal, state and local government web resources and services.